Flag Weather past 2 weeks in Portland, Maine, U.S.A.

Now
30 °F

More clouds than sun.


Feels Like: 22 °F
Forecast: 27 / 41 °F
Wind: 8 mph from Southwest

Location: Portland - Portland International Jetport

Current Time: Nov 22, 2014 at 10:39:08 AM

Latest Report: Nov 22, 2014 at 9:51 AM


Visibility: 10 mi

Pressure: 30.29 "Hg

Humidity: 51%

Dew point: 14 °F

Location of PortlandLocation

Historic Weather in Portland — Graph

°F

Portland temperature yesterday

Maximum temperature yesterday: 35 °F (at 12:51 PM)
Minimum temperature yesterday: 23 °F (at 10:51 PM)
Average temperature yesterday: 29 °F

Past Weeks' High & Low Weather Summary

 TemperatureHumidityPressure
High57 °F (Nov 12, 2:51 PM)100% (Nov 12, 3:51 AM)30.36 "Hg (Nov 12, 3:51 AM)
Low22 °F (Nov 16, 2:51 AM)30% (Nov 19, 2:51 PM)29.40 "Hg (Nov 18, 2:51 AM)
Average38 °F64%29.96 "Hg
* Reported Nov 7 8:51 AM — Nov 22 8:51 AM, Portland, Weather by CustomWeather, © 2014

Note: Actual official high and low records may vary slightly from our data, if they occured in-between our weather recording intervals... More about our weather records

Advertising

Portland weather history for previous 24 hours

 ConditionsComfort  
Time TempWeatherWind HumidityBarometerVisibility
8:51 AM
Nov 22
27 °FMostly cloudy.8 mph55%30.32 "Hg10 mi
7:51 AM26 °FPartly sunny.6 mph52%30.33 "Hg10 mi
6:51 AM25 °FPartly sunny.9 mph53%30.34 "Hg10 mi
5:51 AM24 °FPassing clouds.7 mph55%30.34 "Hg10 mi
4:51 AM22 °FClear.3 mph55%30.36 "Hg10 mi
3:51 AM24 °FClear.10 mph50%30.35 "Hg10 mi
2:51 AM24 °FClear.15 mph50%30.35 "Hg10 mi
1:51 AM24 °FClear.10 mph48%30.35 "Hg10 mi
12:51 AM22 °FClear.12 mph50%30.35 "Hg10 mi
11:51 PM
Nov 21
23 °FClear.6 mph46%30.35 "Hg10 mi
10:51 PM23 °FClear.6 mph46%30.34 "Hg10 mi
9:51 PM24 °FClear.12 mph42%30.33 "Hg10 mi
8:51 PM25 °FClear.13 mph42%30.32 "Hg10 mi
7:51 PM26 °FClear.10 mph40%30.30 "Hg10 mi
6:51 PM27 °FClear.8 mph41%30.28 "Hg10 mi
5:51 PM28 °FClear.14 mph39%30.25 "Hg10 mi
4:51 PM28 °FClear.10 mph41%30.22 "Hg10 mi
3:51 PM30 °FPassing clouds.13 mph38%30.18 "Hg10 mi
2:51 PM32 °FPassing clouds.22 mph35%30.13 "Hg10 mi
1:51 PM34 °FScattered clouds.24 mph34%30.09 "Hg10 mi
12:51 PM35 °FScattered clouds.24 mph31%30.07 "Hg10 mi
11:51 AM34 °FScattered clouds.25 mph34%30.05 "Hg10 mi
10:51 AM34 °FScattered clouds.20 mph35%30.03 "Hg10 mi
Weather by CustomWeather, © 2014

See weather overviewHow to use our weather pages